Tracking 18856 objects as of 12-Dec-2017
HD Live streaming from Space Station
objects crossing your sky now

COSMOS 469

Track COSMOS 469 now!
10-day predictions
COSMOS 469 is classified as:


NORAD ID: 5721
Int'l Code: 1971-117A
Perigee: 937.5 km
Apogee: 1,032.9 km
Inclination: 64.5 °
Period: 104.6 minutes
Semi major axis: 7356 km
RCS: 2.893 m2 (large)
Launch date: December 25, 1971
Source: Commonwealth of Independent States (former USSR) (CIS)
Launch site: TYURATAM MISSILE AND SPACE COMPLEX (TTMTR)
aabbcc
Your satellite tracking list
Your tracking list is empty




NASA's NSSDC Master Catalog

Two Line Element Set (TLE):
1  5721U 71117A   17345.58541045 -.00000079 +00000-0 +11904-4 0  9990
2  5721 064.4855 165.7377 0064815 252.0238 107.3742 13.76018223309257
Source of the keplerian elements: AFSPC